Location: D�nning
(49.2479°N, 12.8491°E)
Time: 08:47:14
(UTC+00:00)

Okean 2 Rocket - Pass Details

Date: 18 September 2020
Orbit: 616 x 642 km, 82.5° (Epoch: 24 October)

Event Time Altitude Azimuth Distance (km) Brightness Sun altitude
Rises 18:03:32 0° 163° (SSE) 2,934 6.2 -8.8°
Reaches altitude 10° 18:05:56 10° 153° (SSE) 2,027 5.3 -9.1°
Maximum altitude 18:09:56 33° 90° (E) 1,083 3.8 -9.8°
Drops below altitude 10° 18:13:57 10° 27° (NNE) 2,030 5.6 -10.4°
Sets 18:16:21 0° 18° (NNE) 2,939 6.5 -10.8°
